[TLELIST] Archives

 

Current TLEs

September 25th 2007 PST

HST 1 20580U 90037B 07266.39716855 +.00000323 +00000-0 +12216-4 0 09724 2 20580 028.4689 269.6883 0003576 067.2034 292.8934 15.00280906754722 ISS (ZARYA) 1 25544U 98067A 07267.73081140 .00011119 00000-0 70702-4 0 394 2 25544 051.6354 310.2630 0010249 044.8299 057.9227 15.77017172506486 CXO 1 25867U 99040B 07268.12500000 .00000415 00000-0 10000-3 0 1166 2 25867 062.4015 087.1030 6378991 282.4763 356.1198 00.37808161 2629 ____________________________________________________________________ These 2-Line ...Continue Reading

Current TLEs

September 24th 2007 PST

HST 1 20580U 90037B 07265.39931645 +.00000303 +00000-0 +10658-4 0 09758 2 20580 028.4689 276.1939 0003507 056.6342 303.4582 15.00280487754570 ISS (ZARYA) 1 25544U 98067A 07267.48389791 .00010771 00000-0 68634-4 0 371 2 25544 051.6348 311.5365 0010386 042.4188 097.5893 15.77009913506440 CXO 1 25867U 99040B 07268.12500000 .00000415 00000-0 10000-3 0 1166 2 25867 062.4015 087.1030 6378991 282.4763 356.1198 00.37808161 2629 ____________________________________________________________________ These 2-Line ...Continue Reading

Current TLEs

September 23rd 2007 PST

HST 1 20580U 90037B 07266.19759814 .00000304 00000-0 10757-4 0 9675 2 20580 028.4689 270.9902 0003514 064.9926 295.1023 15.00280710754699 ISS (ZARYA) 1 25544U 98067A 07266.53361620 .00010168 00000-0 65102-4 0 307 2 25544 051.6357 316.4384 0010184 040.3940 101.0269 15.76985947506294 CXO 1 25867U 99040B 07265.50000000 .00000365 00000-0 10000-3 0 1153 2 25867 062.3849 087.1626 6373804 282.4875 358.8123 00.37805059 2615 ____________________________________________________________________ These 2-Line ...Continue Reading

Current TLEs

September 22nd 2007 PST

HST 1 20580U 90037B 07264.46798749 .00000307 00000-0 10964-4 0 9665 2 20580 028.4690 282.2662 0003477 046.3991 313.6887 15.00280262754432 ISS (ZARYA) 1 25544U 98067A 07265.51939914 .00008982 00000-0 58060-4 0 240 2 25544 051.6358 321.6678 0009964 036.8559 102.8414 15.76959469506133 CXO 1 25867U 99040B 07265.50000000 .00000365 00000-0 10000-3 0 1153 2 25867 062.3849 087.1626 6373804 282.4875 358.8123 00.37805059 2615 ____________________________________________________________________ These 2-Line ...Continue Reading

Current TLEs

September 21st 2007 PST

HST 1 20580U 90037B 07262.53880507 +.00000313 +00000-0 +11458-4 0 09751 2 20580 028.4693 294.8455 0003389 024.9382 335.1373 15.00279806754141 ISS (ZARYA) 1 25544U 98067A 07264.36861946 .00008726 00000-0 56580-4 0 174 2 25544 051.6356 327.6049 0010039 032.0755 050.2019 15.76935687505952 CXO 1 25867U 99040B 07262.87500000 .00000308 00000-0 10000-3 0 1141 2 25867 062.3725 087.2173 6368576 282.5206 001.4538 00.37804503 2608 ____________________________________________________________________ These 2-Line ...Continue Reading

Current TLEs

September 20th 2007 PST

HST 1 20580U 90037B 07263.40361121 .00000301 00000-0 10451-4 0 9652 2 20580 028.4691 289.2068 0003418 034.2887 325.7924 15.00279929754271 ISS (ZARYA) 1 25544U 98067A 07263.46697061 .00009231 00000-0 55533-4 0 123 2 25544 051.6347 332.2622 0010041 029.8252 330.3849 15.76918227505819 CXO 1 25867U 99040B 07262.87500000 .00000308 00000-0 10000-3 0 1141 2 25867 062.3725 087.2173 6368576 282.5206 001.4538 00.37804503 2608 ____________________________________________________________________ These 2-Line ...Continue Reading

Current TLEs

September 19th 2007 PST

HST 1 20580U 90037B 07260.54309808 +.00000322 +00000-0 +12109-4 0 09631 2 20580 028.4696 307.8587 0003331 001.8359 358.2245 15.00279289753845 ISS (ZARYA) 1 25544U 98067A 07261.70652897 .00010641 00000-0 68232-4 0 33 2 25544 051.6365 341.3341 0009703 023.1401 056.5628 15.76890774505531 CXO 1 25867U 99040B 07262.87500000 .00000308 00000-0 10000-3 0 1141 2 25867 062.3725 087.2173 6368576 282.5206 001.4538 00.37804503 2608 ____________________________________________________________________ These 2-Line ...Continue Reading

Current TLEs

September 18th 2007 PST

HST 1 20580U 90037B 07259.54524436 +.00000315 +00000-0 +11590-4 0 09630 2 20580 028.4696 314.3649 0003332 350.2512 009.8012 15.00278919753693 ISS (ZARYA) 1 25544U 98067A 07261.52507442 .00010682 00000-0 68492-4 0 08 2 25544 051.6362 342.2702 0009684 022.5803 106.3463 15.76886944505508 CXO 1 25867U 99040B 07260.20833333 .00000262 00000-0 10000-3 0 1132 2 25867 062.3602 087.2657 6363024 282.5703 358.3995 00.37804557 2592 ____________________________________________________________________ These 2-Line ...Continue Reading

Current TLEs

September 17th 2007 PST

HST 1 20580U 90037B 07259.47872078 .00000315 00000-0 11547-4 0 9621 2 20580 028.4696 314.7988 0003331 349.4502 010.6016 15.00278894753686 ISS (ZARYA) 1 25544U 98067A 07260.36944999 .00010255 00000-0 66003-4 0 9923 2 25544 051.6364 348.2296 0009509 018.8837 025.4216 15.76859626505329 CXO 1 25867U 99040B 07260.20833333 .00000262 00000-0 10000-3 0 1132 2 25867 062.3602 087.2657 6363024 282.5703 358.3995 00.37804557 2592 ____________________________________________________________________ These 2-Line ...Continue Reading

Current TLEs

September 16th 2007 PST

HST 1 20580U 90037B 07257.61605997 +.00000306 +00000-0 +10900-4 0 09687 2 20580 028.4697 326.9443 0003334 326.9592 033.0790 15.00278280753407 ISS (ZARYA) 1 25544U 98067A 07259.49368444 .00009993 00000-0 64484-4 0 9872 2 25544 051.6369 352.7461 0009437 015.6943 093.8201 15.76839129505184 CXO 1 25867U 99040B 07260.20833333 .00000262 00000-0 10000-3 0 1132 2 25867 062.3602 087.2657 6363024 282.5703 358.3995 00.37804557 2592 ____________________________________________________________________ These 2-Line ...Continue Reading
  • This mailing list is a public mailing list - anyone may join or leave, at any time.
  • This mailing list is announce-only.

International Space Station (ISS) / Hubble Space Telescope (HST) / Chandra X-Ray Observatory Orbital Data via EMAIL

Privacy Policy:

Private list